7 * 24
多渠道服务支持
STARLINK-34984是美国SpaceX公司于2025年8月22日发射的星链(Starlink)低轨通信卫星,隶属于星链全球宽带互联网星座计划。卫星采用平板设计与太阳能供电,搭载Ku/Ka波段通信载荷,配备氪工质霍尔推进器,具备自主避撞能力,寿命末期可主动离轨再入烧毁。该卫星将服务于全球偏远地区互联网接入、应急通信保障、远程教育医疗与农业智能化等场景,助力扩充星链星座容量,提升全球网络覆盖的可靠性与容量。
美国
(US)
| 数据来源 | 国际轨道数据 |
| 星历时间: | 2026-06-13T11:18:14+0800 12小时前 查看轨道信息 |
| 半长轴: | 6927.613km |
| 偏心率: | 0.0002313 |
| 轨道倾角: | 97.365° |
| 近地点辐角 | 96.199° |
| 升交点赤经 | 215.902° |
| 平近点角 | 263.950° |
| 近地点: | 547.873km |
| 远地点: | 551.079km |
| 周期: | 95.639分钟 |
| 每日圈数: | 15.056616 |